Дата Пункты Температура Давл., мм. Влажн., % Ветер Погодные явления
Воздуха Воды Направл. Скорость
19.11.19 05:00 Одесса 11.0 13.0 767 90 Пд-С 3 05 ГОДИН
19.11.19 02:00 Одесса 11.0 13.0 766 92 С 4 02 ГОДИНИ
18.11.19 11:00 Одесса 12.0 13.0 766 89 Пд-С 4 23 ГОДИНИ
18.11.19 08:00 Одесса 11.0 13.0 765 90 Пд-С 4 20 ГОДИН
18.11.19 05:00 Одесса 10.0 13.0 765 88 С 5 17 ГОДИН
18.11.19 02:00 Одесса 8.0 13.0 765 90 С 2 14 ГОДИН
18.11.19 11:00 Одесса 7.0 12.0 765 97 С 4 11 ГОДИН
18.11.19 08:00 Одесса 5.0 12.0 766 97 Пн-С 4 08 ГОДИН
18.11.19 05:00 Одесса 6.0 13.0 765 100 Пн 4 05 ГОДИН
18.11.19 02:00 Одесса 7.0 13.0 765 96 С 4 02 ГОДИНИ
17.11.19 11:00 Одесса 7.0 13.0 765 92 Пд-С 4 23 ГОДИНИ
17.11.19 08:00 Одесса 9.0 13.0 766 89 С 4 20 ГОДИН
17.11.19 05:00 Одесса 8.0 13.0 766 90 С 2 17 ГОДИН
17.11.19 02:00 Одесса 8.0 13.0 766 90 С 3 14 ГОДИН
17.11.19 11:00 Одесса 8.0 13.0 767 87 Пн-С 5 11 ГОДИН
17.11.19 08:00 Одесса 7.0 13.0 767 93 С 6 08 ГОДИН
17.11.19 05:00 Одесса 9.0 13.0 767 92 С 5 05 ГОДИН
17.11.19 02:00 Одесса 11.0 13.0 767 90 С 4 02 ГОДИНИ
16.11.19 11:00 Одесса 12.0 13.0 766 87 Пд-С 2 23 ГОДИНИ
16.11.19 08:00 Одесса 13.0 13.0 766 86 С 6 20 ГОДИН
Количество строк
1 2 3 4 5 6 7 8 9 10
Page 1 of 553